TimeCST,TemperatureF,Dew PointF,Humidity,Sea Level PressureIn,VisibilityMPH,Wind Direction,Wind SpeedMPH,Gust SpeedMPH,PrecipitationIn,Events,Conditions,WindDirDegrees,DateUTC
12:18 AM,71.6,69.8,94,30.09,8.0,SSW,6.9,-,N/A,,Overcast,210,2013-12-07 06:18:00
12:28 AM,71.6,69.8,94,30.09,8.0,SSW,6.9,-,N/A,,Overcast,210,2013-12-07 06:28:00
12:47 AM,71.6,69.8,94,30.10,8.0,NNW,13.8,-,N/A,Rain,Light Rain,330,2013-12-07 06:47:00
12:58 AM,70.2,67.1,90,30.12,10.0,NW,9.2,-,0.00,Rain,Light Rain,320,2013-12-07 06:58:00
1:03 AM,68.0,64.4,88,30.11,10.0,NW,9.2,-,N/A,Rain,Light Rain,310,2013-12-07 07:03:00
1:08 AM,66.2,64.4,94,30.11,10.0,NW,8.1,-,N/A,Rain,Light Rain,310,2013-12-07 07:08:00
1:10 AM,66.2,62.6,88,30.11,10.0,NW,9.2,-,N/A,,Overcast,320,2013-12-07 07:10:00
1:35 AM,64.4,62.6,94,30.11,10.0,NW,8.1,-,N/A,,Overcast,320,2013-12-07 07:35:00
1:58 AM,63.9,60.8,90,30.12,10.0,NNW,6.9,-,0.00,,Mostly Cloudy,330,2013-12-07 07:58:00
2:13 AM,64.4,60.8,88,30.12,10.0,NNW,8.1,-,N/A,,Mostly Cloudy,330,2013-12-07 08:13:00
2:58 AM,62.2,58.6,88,30.12,10.0,NNW,12.7,-,N/A,,Mostly Cloudy,330,2013-12-07 08:58:00
3:03 AM,62.6,59.0,88,30.11,10.0,NNW,11.5,-,N/A,,Mostly Cloudy,340,2013-12-07 09:03:00
3:13 AM,60.8,57.2,88,30.11,10.0,NNW,11.5,-,N/A,,Overcast,330,2013-12-07 09:13:00
3:48 AM,60.8,55.4,82,30.12,10.0,North,9.2,-,N/A,,Overcast,350,2013-12-07 09:48:00
3:58 AM,59.9,55.8,86,30.13,10.0,NNW,11.5,-,N/A,,Overcast,340,2013-12-07 09:58:00
4:08 AM,59.0,55.4,88,30.13,10.0,NNW,13.8,-,N/A,,Overcast,340,2013-12-07 10:08:00
4:33 AM,57.2,53.6,88,30.13,10.0,North,12.7,-,N/A,,Overcast,350,2013-12-07 10:33:00
4:58 AM,55.4,51.4,87,30.16,10.0,NNW,15.0,-,N/A,,Overcast,340,2013-12-07 10:58:00
5:08 AM,53.6,50.0,88,30.15,10.0,North,11.5,-,N/A,,Overcast,350,2013-12-07 11:08:00
5:38 AM,53.6,48.2,82,30.17,10.0,North,16.1,-,N/A,,Overcast,360,2013-12-07 11:38:00
5:48 AM,53.6,48.2,82,30.17,10.0,North,12.7,-,N/A,,Overcast,360,2013-12-07 11:48:00
5:58 AM,52.9,48.2,84,30.19,10.0,North,12.7,-,N/A,,Overcast,350,2013-12-07 11:58:00
6:13 AM,51.8,48.2,88,30.19,10.0,NNW,15.0,-,N/A,,Overcast,340,2013-12-07 12:13:00
6:23 AM,51.8,48.2,88,30.19,10.0,North,15.0,-,N/A,,Overcast,350,2013-12-07 12:23:00
6:43 AM,51.8,46.4,82,30.19,10.0,North,13.8,-,N/A,,Overcast,350,2013-12-07 12:43:00
6:58 AM,51.1,47.3,87,30.20,10.0,North,11.5,-,N/A,,Overcast,350,2013-12-07 12:58:00
7:33 AM,50.0,46.4,87,30.20,10.0,North,12.7,-,N/A,,Overcast,350,2013-12-07 13:33:00
7:48 AM,51.8,46.4,82,30.21,10.0,North,13.8,-,N/A,,Overcast,350,2013-12-07 13:48:00
7:58 AM,51.3,46.2,83,30.22,10.0,North,13.8,-,N/A,,Overcast,350,2013-12-07 13:58:00
8:48 AM,51.8,46.4,82,30.23,10.0,North,17.3,-,N/A,,Overcast,350,2013-12-07 14:48:00
8:58 AM,52.7,45.9,78,30.25,10.0,North,17.3,-,N/A,,Overcast,350,2013-12-07 14:58:00
9:25 AM,53.6,46.4,77,30.24,10.0,North,13.8,-,N/A,Rain,Light Rain,360,2013-12-07 15:25:00
9:36 AM,53.6,46.4,77,30.24,10.0,North,12.7,-,N/A,,Overcast,360,2013-12-07 15:36:00
9:58 AM,53.2,46.2,77,30.25,10.0,North,12.7,-,0.00,,Overcast,360,2013-12-07 15:58:00
10:33 AM,53.6,46.4,77,30.24,10.0,NNE,15.0,-,N/A,,Overcast,20,2013-12-07 16:33:00
10:43 AM,53.6,46.4,77,30.23,10.0,North,12.7,-,N/A,,Overcast,10,2013-12-07 16:43:00
10:58 AM,54.1,46.4,75,30.24,10.0,North,15.0,-,N/A,,Overcast,360,2013-12-07 16:58:00
11:58 AM,55.9,46.9,72,30.22,10.0,NNE,12.7,-,N/A,,Overcast,20,2013-12-07 17:58:00
12:58 PM,56.7,46.9,70,30.20,10.0,North,15.0,-,N/A,,Overcast,350,2013-12-07 18:58:00
1:58 PM,54.5,45.7,72,30.20,10.0,North,12.7,-,N/A,,Overcast,350,2013-12-07 19:58:00
2:58 PM,52.9,45.3,75,30.20,10.0,North,16.1,-,N/A,,Overcast,10,2013-12-07 20:58:00
2:59 PM,53.6,44.6,72,30.19,10.0,North,13.8,-,N/A,Rain,Light Rain,360,2013-12-07 20:59:00
3:10 PM,51.8,44.6,76,30.18,10.0,North,15.0,18.4,N/A,,Overcast,10,2013-12-07 21:10:00
3:58 PM,52.0,45.0,77,30.19,10.0,North,12.7,-,0.00,,Overcast,360,2013-12-07 21:58:00
4:08 PM,51.8,44.6,76,30.19,10.0,North,15.0,-,N/A,,Overcast,350,2013-12-07 22:08:00
4:13 PM,51.8,44.6,76,30.19,10.0,North,15.0,-,N/A,,Overcast,360,2013-12-07 22:13:00
4:58 PM,50.5,44.6,80,30.21,10.0,North,12.7,-,N/A,,Overcast,10,2013-12-07 22:58:00
5:28 PM,50.0,44.6,82,30.20,10.0,North,15.0,19.6,N/A,,Overcast,10,2013-12-07 23:28:00
5:43 PM,50.0,44.6,82,30.20,10.0,North,11.5,-,N/A,,Overcast,10,2013-12-07 23:43:00
5:48 PM,50.0,44.6,82,30.20,10.0,North,10.4,-,N/A,,Overcast,10,2013-12-07 23:48:00
5:58 PM,50.2,44.6,81,30.22,10.0,NNE,10.4,-,N/A,,Overcast,20,2013-12-07 23:58:00
6:08 PM,50.0,44.6,82,30.21,10.0,North,12.7,-,N/A,,Overcast,10,2013-12-08 00:08:00
6:23 PM,50.0,44.6,82,30.21,10.0,North,9.2,-,N/A,,Overcast,360,2013-12-08 00:23:00
6:43 PM,50.0,44.6,82,30.21,10.0,North,10.4,-,N/A,,Overcast,360,2013-12-08 00:43:00
6:58 PM,50.4,45.1,82,30.22,10.0,North,10.4,-,N/A,,Overcast,360,2013-12-08 00:58:00
7:28 PM,50.0,44.6,82,30.21,10.0,North,10.4,-,N/A,,Overcast,10,2013-12-08 01:28:00
7:48 PM,50.0,44.6,82,30.21,10.0,North,12.7,-,N/A,,Overcast,10,2013-12-08 01:48:00
7:58 PM,50.0,45.5,85,30.22,10.0,North,8.1,-,N/A,,Overcast,360,2013-12-08 01:58:00
8:23 PM,50.0,46.4,87,30.21,10.0,NNE,9.2,-,N/A,,Overcast,20,2013-12-08 02:23:00
8:53 PM,50.0,46.4,87,30.21,10.0,North,10.4,-,N/A,,Overcast,10,2013-12-08 02:53:00
8:58 PM,49.5,45.9,87,30.22,9.0,NNE,10.4,-,N/A,,Overcast,20,2013-12-08 02:58:00
9:28 PM,50.0,46.4,87,30.21,10.0,North,10.4,-,N/A,,Overcast,10,2013-12-08 03:28:00
9:33 PM,50.0,46.4,87,30.21,10.0,North,8.1,-,N/A,,Overcast,10,2013-12-08 03:33:00
9:58 PM,49.6,46.2,88,30.22,10.0,NNE,10.4,-,N/A,,Overcast,20,2013-12-08 03:58:00
10:58 PM,50.0,46.4,87,30.23,10.0,North,8.1,-,N/A,,Overcast,350,2013-12-08 04:58:00
11:03 PM,50.0,46.4,87,30.22,9.0,North,8.1,-,N/A,,Overcast,10,2013-12-08 05:03:00
11:08 PM,50.0,46.4,87,30.22,8.0,North,6.9,-,N/A,,Overcast,360,2013-12-08 05:08:00
11:33 PM,50.0,46.4,87,30.21,10.0,North,8.1,-,N/A,,Overcast,10,2013-12-08 05:33:00
11:53 PM,50.0,46.4,87,30.20,8.0,NNE,6.9,-,N/A,,Overcast,30,2013-12-08 05:53:00
11:58 PM,49.8,46.8,89,30.21,7.0,NNE,6.9,-,N/A,,Overcast,20,2013-12-08 05:58:00